Manistique, MI

3:37 PM EDT on July 26, 2017 (GMT -0400)
Schoolcraft County

Weather History for KISQ - April, 2013

Change the Weather History Date:

Friday, April 5, 2013

  Actual Average Record
Temperature  
Mean Temperature 30 °F -  
Max Temperature 35 °F 41 °F 55 °F (1951)
Min Temperature 24 °F 24 °F -7 °F (1972)
Degree Days  
Heating Degree Days 36    
Moisture  
Dew Point 14 °F    
Average Humidity 54    
Maximum Humidity 75    
Minimum Humidity 23    
Precipitation  
Precipitation 0.00 in - - ()
Sea Level Pressure  
Sea Level Pressure 30.17 in    
Wind  
Wind Speed 7 mph (NNW)    
Max Wind Speed 15 mph    
Max Gust Speed 21 mph    
Visibility 10 miles    
Events Snow    
Averages and records for this station are not official NWS values.
T = Trace of Precipitation, MM = Missing Value Source: NWS Daily Summary

Daily Weather History Graph

Daily Weather History Graph

Search for Another Location

Airport or City:

Trip Planner

Search our weather history database for the weather conditions in past years. The results will help you decide how hot, cold, wet, or windy it might be!

Date:

Astronomy

Apr. 05, 2013 Rise Set
Actual Time 7:16 AM EDT 8:18 PM EDT
Civil Twilight 6:46 AM EDT 8:49 PM EDT
Nautical Twilight 6:09 AM EDT 9:26 PM EDT
Astronomical Twilight 5:31 AM EDT 10:04 PM EDT
Moon 4:38 AM EDT (4/5) 3:28 PM EDT (4/5)
Length of Visible Light 14h 03m
Length of Day
13h 02m
Waning Crescent, 24% of the Moon is Illuminated
Apr 5
Waning Crescent
Apr 10
New
Apr 18
First Quarter
Apr 25
Full
May 2
Last Quarter

Hourly Weather History & Observations

Time (EDT) Temp. Windchill Dew Point Humidity Pressure Visibility Wind Dir Wind Speed Gust Speed Precip Events Conditions
12:15 AM 30.2 °F 23.4 °F 23.0 °F 75% 30.03 in 10.0 mi NW 6.9 mph - N/A   Clear
12:34 AM 30.2 °F 24.3 °F 21.2 °F 69% 30.03 in 10.0 mi NNW 5.8 mph - N/A   Clear
12:55 AM 28.4 °F 22.2 °F 21.2 °F 74% 30.04 in 10.0 mi NW 5.8 mph - N/A   Clear
1:14 AM 28.4 °F 22.2 °F 21.2 °F 74% 30.04 in 10.0 mi NW 5.8 mph - N/A   Clear
1:35 AM 28.4 °F 21.2 °F 21.2 °F 74% 30.04 in 10.0 mi NW 6.9 mph - N/A   Clear
1:55 AM 28.4 °F 22.2 °F 21.2 °F 74% 30.05 in 10.0 mi NW 5.8 mph - N/A   Clear
2:14 AM 28.4 °F 21.2 °F 21.2 °F 74% 30.05 in 10.0 mi NW 6.9 mph - N/A   Clear
2:35 AM 28.4 °F 21.2 °F 19.4 °F 69% 30.06 in 10.0 mi NW 6.9 mph - N/A   Clear
2:54 AM 28.4 °F 21.2 °F 19.4 °F 69% 30.06 in 10.0 mi NW 6.9 mph - N/A   Clear
3:14 AM 26.6 °F 19.1 °F 17.6 °F 69% 30.07 in 10.0 mi NW 6.9 mph - N/A   Clear
3:35 AM 26.6 °F 20.0 °F 17.6 °F 69% 30.07 in 10.0 mi WNW 5.8 mph - N/A   Clear
3:54 AM 26.6 °F 20.0 °F 17.6 °F 69% 30.07 in 10.0 mi NW 5.8 mph - N/A   Clear
4:15 AM 26.6 °F 19.1 °F 15.8 °F 64% 30.08 in 10.0 mi NW 6.9 mph - N/A   Clear
4:34 AM 26.6 °F 19.1 °F 17.6 °F 69% 30.09 in 10.0 mi NW 6.9 mph - N/A   Mostly Cloudy
4:55 AM 26.6 °F 18.2 °F 17.6 °F 69% 30.09 in 10.0 mi NW 8.1 mph - N/A   Overcast
5:15 AM 26.6 °F 19.1 °F 17.6 °F 69% 30.11 in 10.0 mi NNW 6.9 mph - N/A   Mostly Cloudy
5:34 AM 26.6 °F 19.1 °F 17.6 °F 69% 30.12 in 10.0 mi North 6.9 mph - N/A   Mostly Cloudy
5:55 AM 26.6 °F 18.2 °F 17.6 °F 69% 30.13 in 10.0 mi North 8.1 mph - N/A   Overcast
6:14 AM 26.6 °F 18.2 °F 17.6 °F 69% 30.14 in 10.0 mi North 8.1 mph - N/A   Mostly Cloudy
6:34 AM 26.6 °F 19.1 °F 15.8 °F 64% 30.15 in 10.0 mi NNW 6.9 mph - N/A   Scattered Clouds
6:55 AM 26.6 °F 18.2 °F 15.8 °F 64% 30.16 in 10.0 mi NNW 8.1 mph - N/A   Scattered Clouds
7:14 AM 26.6 °F 17.5 °F 15.8 °F 64% 30.17 in 10.0 mi NNW 9.2 mph - N/A   Mostly Cloudy
7:35 AM 24.8 °F 19.1 °F 15.8 °F 69% 30.18 in 10.0 mi NNW 4.6 mph - N/A   Mostly Cloudy
7:54 AM 26.6 °F 20.0 °F 15.8 °F 64% 30.19 in 10.0 mi North 5.8 mph - N/A   Scattered Clouds
8:14 AM 26.6 °F 20.0 °F 15.8 °F 64% 30.19 in 10.0 mi North 5.8 mph - N/A   Mostly Cloudy
8:35 AM 26.6 °F 18.2 °F 15.8 °F 64% 30.20 in 10.0 mi North 8.1 mph - N/A   Mostly Cloudy
8:54 AM 26.6 °F 15.2 °F 15.8 °F 64% 30.21 in 10.0 mi North 13.8 mph 18.4 mph N/A   Mostly Cloudy
9:15 AM 28.4 °F 18.5 °F 15.8 °F 59% 30.22 in 10.0 mi North 11.5 mph - N/A   Mostly Cloudy
9:34 AM 28.4 °F 18.5 °F 15.8 °F 59% 30.22 in 10.0 mi North 11.5 mph 17.3 mph N/A   Overcast
9:54 AM 28.4 °F 17.5 °F 17.6 °F 64% 30.22 in 10.0 mi North 13.8 mph 17.3 mph N/A Snow Snow
10:15 AM 28.4 °F 19.7 °F 17.6 °F 64% 30.22 in 10.0 mi NNW 9.2 mph 17.3 mph N/A Snow Light Snow
10:34 AM 28.4 °F 18.5 °F 15.8 °F 59% 30.23 in 10.0 mi North 11.5 mph - N/A   Mostly Cloudy
10:54 AM 28.4 °F 19.1 °F 17.6 °F 64% 30.24 in 10.0 mi NNW 10.4 mph - N/A Snow Light Snow
11:14 AM 30.2 °F 20.2 °F 17.6 °F 60% 30.24 in 10.0 mi North 12.7 mph - N/A   Mostly Cloudy
11:35 AM 30.2 °F 22.6 °F 15.8 °F 55% 30.24 in 10.0 mi NNW 8.1 mph 16.1 mph N/A   Mostly Cloudy
11:54 AM 32.0 °F 24.2 °F 15.8 °F 51% 30.23 in 10.0 mi North 9.2 mph 16.1 mph N/A   Overcast
12:14 PM 32.0 °F 23.0 °F 12.2 °F 44% 30.23 in 10.0 mi NW 11.5 mph 18.4 mph N/A   Mostly Cloudy
12:35 PM 32.0 °F 24.8 °F 14.0 °F 48% 30.23 in 10.0 mi NNW 8.1 mph 18.4 mph N/A   Scattered Clouds
12:54 PM 32.0 °F 23.0 °F 14.0 °F 48% 30.23 in 10.0 mi NW 11.5 mph 16.1 mph N/A   Scattered Clouds
1:14 PM 33.8 °F 26.4 °F 14.0 °F 44% 30.23 in 10.0 mi NW 9.2 mph - N/A   Scattered Clouds
1:35 PM 33.8 °F 24.8 °F 12.2 °F 41% 30.22 in 10.0 mi North 12.7 mph - N/A   Scattered Clouds
1:54 PM 33.8 °F 23.9 °F 12.2 °F 41% 30.22 in 10.0 mi North 15.0 mph 20.7 mph N/A   Clear
2:15 PM 33.8 °F 24.8 °F 12.2 °F 41% 30.22 in 10.0 mi North 12.7 mph 17.3 mph N/A   Clear
2:34 PM 33.8 °F 25.3 °F 14.0 °F 44% 30.22 in 10.0 mi NNW 11.5 mph - N/A   Clear
2:55 PM 33.8 °F 25.3 °F 12.2 °F 41% 30.21 in 10.0 mi NW 11.5 mph 17.3 mph N/A   Scattered Clouds
3:14 PM 35.6 °F 28.0 °F 14.0 °F 41% 30.20 in 10.0 mi NNW 10.4 mph 16.1 mph N/A   Scattered Clouds
3:34 PM 35.6 °F 26.6 °F 14.0 °F 41% 30.20 in 10.0 mi NW 13.8 mph - N/A   Clear
3:55 PM 35.6 °F 27.1 °F 15.8 °F 44% 30.19 in 10.0 mi North 12.7 mph 17.3 mph N/A   Clear
4:14 PM 35.6 °F 28.6 °F 14.0 °F 41% 30.19 in 10.0 mi NNW 9.2 mph - N/A   Clear
4:35 PM 35.6 °F 29.9 °F 12.2 °F 38% 30.19 in 10.0 mi NW 6.9 mph - N/A   Clear
4:54 PM 35.6 °F 27.5 °F 6.8 °F 30% 30.19 in 10.0 mi NW 11.5 mph 17.3 mph N/A   Clear
5:14 PM 35.6 °F 30.7 °F 8.6 °F 33% 30.19 in 10.0 mi NW 5.8 mph 17.3 mph N/A   Clear
5:35 PM 35.6 °F 28.6 °F 6.8 °F 30% 30.20 in 10.0 mi NNW 9.2 mph - N/A   Clear
5:54 PM 35.6 °F 28.6 °F 6.8 °F 30% 30.20 in 10.0 mi WNW 9.2 mph - N/A   Clear
6:14 PM 33.8 °F 30.8 °F 1.4 °F 25% 30.20 in 10.0 mi NNW 3.5 mph - N/A   Clear
6:35 PM 33.8 °F 27.7 °F -0.4 °F 23% 30.20 in 10.0 mi NW 6.9 mph - N/A   Clear
6:54 PM 33.8 °F 29.6 °F 1.4 °F 25% 30.21 in 10.0 mi NNW 4.6 mph - N/A   Clear
7:15 PM 33.8 °F 30.8 °F -0.4 °F 23% 30.20 in 10.0 mi NNW 3.5 mph - N/A   Clear
7:34 PM 32.0 °F 26.4 °F 10.4 °F 41% 30.20 in 10.0 mi North 5.8 mph - N/A   Clear
7:54 PM 30.2 °F 25.4 °F 8.6 °F 40% 30.20 in 10.0 mi NNE 4.6 mph - N/A   Clear
8:15 PM 30.2 °F 26.7 °F 8.6 °F 40% 30.21 in 10.0 mi North 3.5 mph - N/A   Clear
8:34 PM 30.2 °F - 8.6 °F 40% 30.21 in 10.0 mi Calm Calm - N/A   Clear
8:55 PM 28.4 °F - 6.8 °F 40% 30.21 in 10.0 mi Calm Calm - N/A   Clear
9:15 PM 26.6 °F - 10.4 °F 51% 30.22 in 10.0 mi Calm Calm - N/A   Clear
9:34 PM 24.8 °F - 14.0 °F 64% 30.22 in 10.0 mi Calm Calm - N/A   Clear
9:55 PM 26.6 °F - 12.2 °F 55% 30.22 in 10.0 mi Calm Calm - N/A   Clear
10:14 PM 26.6 °F - 12.2 °F 55% 30.22 in 10.0 mi Calm Calm - N/A   Clear
10:34 PM 24.8 °F - 12.2 °F 59% 30.21 in 10.0 mi Calm Calm - N/A   Clear
10:55 PM 26.6 °F - 10.4 °F 51% 30.21 in 10.0 mi Calm Calm - N/A   Clear
11:14 PM 24.8 °F 20.5 °F 14.0 °F 64% 30.20 in 10.0 mi NNE 3.5 mph - N/A   Clear
11:35 PM 26.6 °F - 12.2 °F 55% 30.20 in 10.0 mi Calm Calm - N/A   Clear
11:54 PM 26.6 °F 22.6 °F 12.2 °F 55% 30.19 in 10.0 mi NE 3.5 mph - N/A   Clear